Regional Weather Roundup
Issued by NWS

Home | Current Version | Previous Version | Text Only | Print | Product List | Glossary On
Versions: 1 2 3 4 5 6 7 8 9 10 11 12 13 14 15 16 17 18 19 20 21 22 23 24 25 26 27 28 29 30 31 32 33 34 35 36 37 38 39 40 41 42 43 44 45 46 47 48 49 50
000
ASUS43 KDTX 281701
RWRMI
MICHIGAN HOURLY REGIONAL WEATHER ROUNDUP
NATIONAL WEATHER SERVICE DETROIT/PONTIAC MI
100 PM EDT WED SEP 28 2016

NOTE: "FAIR" INDICATES FEW OR NO CLOUDS BELOW 12,000 FEET WITH NO
SIGNIFICANT WEATHER AND/OR OBSTRUCTION TO VISIBILITY.

MIZ047>049-052>055-059>063-066>070-074>076-081>083-281800-
SOUTHEAST LOWER MICHIGAN

CITY           SKY/WX    TMP DP  RH WIND       PRES   REMARKS
ADRIAN         CLOUDY    56  50  80 E10       29.90S
ALMA           MOSUNNY   64  53  67 NE14G20   29.94S
ANN ARBOR      RAIN      54  52  93 NE6       29.90R FOG
BAD AXE        CLOUDY    64  55  71 E8        29.96R
CARO           MOSUNNY   67  53  59 E8        29.93R
DETROIT CITY   LGT RAIN  59  56  89 E5        29.91F
DETROIT        CLOUDY    58  50  75 N6        29.91S
FLINT          CLOUDY    61  51  70 E5        29.94R
GROSSE ILE     CLOUDY    59  53  80 NE6       29.89F
HILLSDALE      PTSUNNY   63  45  51 E8G17     29.87S
HOWELL         LGT RAIN  56  53  90 E3        29.92R

CITY           SKY/WX    TMP DP  RH WIND       PRES   REMARKS
JACKSON        CLOUDY    60  49  66 E12       29.90R
LAMBERTVILLE   CLOUDY    56  53  90 CALM      29.89R
LANSING        CLOUDY    66  48  52 E15       29.92R
LAPEER         CLOUDY    63  52  68 CALM      29.93S
MASON          LGT RAIN  60  49  68 E7        29.92R
MONROE         CLOUDY    55  52  90 NE6       29.88S
MT. CLEMENS    PTSUNNY   64  53  65 S7        29.90R
PONTIAC        LGT RAIN  57  52  83 E3        29.92R
PORT HURON     CLOUDY    63  55  77 E6        29.94R
TRI CITIES     MOSUNNY   63  52  67 NE17G28   29.95R
MIDLAND        FAIR      65  47  52 NE16G24   29.94R
TROY           LGT RAIN  60  54  79 NE5       29.94R
SAGINAW HB     CLOUDY    64  52  63 N15G21    29.93R
$$
MIZ043>046-050>051-056>058-064>065-071>073-077>080-281800-
SOUTHWEST LOWER MICHIGAN

CITY           SKY/WX    TMP DP  RH WIND       PRES   REMARKS
BATTLE CREEK   PTSUNNY   62  49  62 E6        29.88R
BENTON HARBOR  CLOUDY    55  49  80 N5        29.87S
BIG RAPIDS     SUNNY     62  49  62 E10       29.95S
COLDWATER      CLOUDY    61  48  62 SE6       29.87R
FREMONT        PTSUNNY   58  51  76 E6        29.94R
HOLLAND        CLOUDY    57  49  74 NE7       29.91R
GRAND RAPIDS   CLOUDY    63  49  60 NE16      29.91R
IONIA          FAIR      63  47  55 NE14G22   29.91R
KALAMAZOO      CLOUDY    59  47  64 E6        29.89R
LUDINGTON      CLOUDY    60  50  69 E10       29.97R
MARSHALL       MOSUNNY   63  47  57 E8        29.88S
MOUNT PLEASANT SUNNY     65  50  58 NE7G17    29.94S
MUSKEGON       CLOUDY    59  52  77 NE9       29.93R
SOUTH HAVEN    CLOUDY    55  52  90 NE6       29.89R
$$
MIZ016>042-281800-
NORTHERN LOWER MICHIGAN

CITY           SKY/WX    TMP DP  RH WIND       PRES   REMARKS
ALPENA         MOSUNNY   67  50  54 NE9       30.03S
BEAVER ISLAND  MOSUNNY   62  52  70 NE12      30.06R
BELLAIRE       SUNNY     63  50  64 NE8       30.02S
CADILLAC       SUNNY     62  48  60 NE6       29.98S
CHARLEVOIX     SUNNY     62  50  65 E6        30.06R
FRANKFORT      SUNNY     61  49  63 NE8       30.01R
GAYLORD        SUNNY     62  46  55 NE9       30.03S
GRAYLING       SUNNY     64  50  60 N8        30.01S HAZE
HARBOR SPRINGS MOSUNNY   61  51  70 NE9       30.04S
HOUGHTON LAKE  SUNNY     64  46  52 NE10G21   30.00S
MANISTEE       SUNNY     62  50  64 E10       29.98R
OSCODA         SUNNY     66  51  58 NE13G20   29.99S
PELLSTON       MOSUNNY   62  49  62 E7        30.06R
ROGERS CITY    MOSUNNY   61  53  75 NE5       30.06S
TRAVERSE CITY  PTSUNNY   63  50  62 NE7       30.00R
$$
MIZ007>008-015-281800-
EASTERN UPPER MICHIGAN

CITY           SKY/WX    TMP DP  RH WIND       PRES   REMARKS
KINROSS        LGT RAIN  57  55  93 E6        30.09R
MACKINAC ISLAN SUNNY     61  51  69 NE6       30.07R
NEWBERRY       CLOUDY    57  55  92 NE12      30.09R
S. S. MARIE    PTSUNNY   62  53  72 E6        30.08R
MUNISING         N/A     61  55  81 N9        30.08R
$$
MIZ004>006-011>014-085-281800-
CENTRAL UPPER MICHIGAN

CITY           SKY/WX    TMP DP  RH WIND       PRES   REMARKS
MANISTIQUE     CLOUDY    60  53  78 E8        30.08R
ESCANABA       PTSUNNY   60  50  69 NE10      30.07R
MENOMINEE      CLOUDY    59  51  75 NE17      30.04R
$$
MIZ001>003-009>011-084-281800-
WESTERN UPPER MICHIGAN

CITY           SKY/WX    TMP DP  RH WIND       PRES   REMARKS
IRON MOUNTAIN  PTSUNNY   59  46  62 NE10      30.07R
HOUGHTON       CLOUDY    58  51  78 NE12      30.14R
COPPER HARBOR    N/A     60  52  74 E9        30.15R
IRONWOOD       LGT RAIN  54  53  97 N14G21    30.16R FOG
$$

ABBREVIATIONS USED IN REMARKS
   TC - TEMPERATURE IN CELSIUS
  WCI - WIND CHILL INDEX
   HX - HEAT INDEX
  VSB - VISIBILITY





USA.gov is the U.S. government's official web portal to all federal, state and local government web resources and services.